TimeCST,TemperatureF,Dew PointF,Humidity,Sea Level PressureIn,VisibilityMPH,Wind Direction,Wind SpeedMPH,Gust SpeedMPH,PrecipitationIn,Events,Conditions,WindDirDegrees,DateUTC
12:15 AM,19.8,10.4,67,30.35,10.0,Calm,Calm,-,N/A,,Clear,0,2013-01-15 06:15:00
12:35 AM,18.9,10.8,71,30.35,10.0,South,3.5,-,N/A,,Clear,190,2013-01-15 06:35:00
12:55 AM,19.2,10.2,68,30.34,10.0,South,4.6,-,N/A,,Scattered Clouds,170,2013-01-15 06:55:00
1:15 AM,19.9,10.9,68,30.33,10.0,South,3.5,-,N/A,,Scattered Clouds,180,2013-01-15 07:15:00
1:35 AM,20.3,10.4,66,30.33,10.0,South,3.5,-,N/A,,Scattered Clouds,170,2013-01-15 07:35:00
1:55 AM,19.4,10.4,68,30.32,10.0,Calm,Calm,-,N/A,,Overcast,0,2013-01-15 07:55:00
2:15 AM,17.2,11.1,77,30.32,10.0,Calm,Calm,-,N/A,,Overcast,0,2013-01-15 08:15:00
2:35 AM,16.7,10.4,76,30.32,10.0,Calm,Calm,-,N/A,,Scattered Clouds,0,2013-01-15 08:35:00
2:55 AM,17.4,10.6,75,30.32,10.0,Calm,Calm,-,N/A,,Scattered Clouds,0,2013-01-15 08:55:00
3:15 AM,15.8,8.6,73,30.32,10.0,Calm,Calm,-,N/A,,Mostly Cloudy,0,2013-01-15 09:15:00
3:35 AM,17.6,10.4,73,30.31,10.0,Calm,Calm,-,N/A,,Overcast,0,2013-01-15 09:35:00
3:55 AM,16.5,10.2,76,30.30,10.0,Calm,Calm,-,N/A,,Overcast,0,2013-01-15 09:55:00
4:15 AM,15.4,10.4,80,30.30,10.0,Calm,Calm,-,N/A,,Mostly Cloudy,0,2013-01-15 10:15:00
4:35 AM,15.8,8.6,73,30.30,10.0,Calm,Calm,-,N/A,,Scattered Clouds,0,2013-01-15 10:35:00
4:55 AM,15.3,9.5,78,30.30,10.0,Calm,Calm,-,N/A,,Clear,0,2013-01-15 10:55:00
5:15 AM,14.4,8.2,77,30.30,10.0,Calm,Calm,-,N/A,,Clear,0,2013-01-15 11:15:00
5:35 AM,13.3,8.6,82,30.30,10.0,Calm,Calm,-,N/A,,Clear,0,2013-01-15 11:35:00
5:55 AM,14.5,9.3,80,30.30,10.0,Calm,Calm,-,N/A,,Clear,0,2013-01-15 11:55:00
6:15 AM,14.4,8.6,78,30.31,10.0,Calm,Calm,-,N/A,,Scattered Clouds,0,2013-01-15 12:15:00
6:35 AM,14.0,8.6,79,30.31,10.0,South,4.6,-,N/A,,Mostly Cloudy,170,2013-01-15 12:35:00
6:55 AM,15.4,9.5,77,30.32,10.0,Calm,Calm,-,N/A,,Mostly Cloudy,0,2013-01-15 12:55:00
7:15 AM,16.3,9.3,74,30.31,10.0,Calm,Calm,-,N/A,,Mostly Cloudy,0,2013-01-15 13:15:00
7:35 AM,16.7,9.5,73,30.31,10.0,Calm,Calm,-,N/A,,Mostly Cloudy,0,2013-01-15 13:35:00
7:55 AM,16.7,9.5,73,30.31,10.0,Calm,Calm,-,N/A,,Scattered Clouds,0,2013-01-15 13:55:00
8:15 AM,16.3,9.5,74,30.31,10.0,Calm,Calm,-,N/A,,Clear,0,2013-01-15 14:15:00
8:35 AM,18.9,11.3,72,30.30,10.0,South,4.6,-,N/A,,Mostly Cloudy,180,2013-01-15 14:35:00
8:55 AM,20.8,12.2,69,30.30,10.0,South,5.8,-,N/A,,Scattered Clouds,180,2013-01-15 14:55:00
9:15 AM,22.5,12.4,65,30.31,10.0,SSW,4.6,-,N/A,,Clear,200,2013-01-15 15:15:00
9:35 AM,24.3,13.3,63,30.30,10.0,SSW,4.6,-,N/A,,Clear,210,2013-01-15 15:35:00
9:55 AM,26.1,12.0,55,30.29,10.0,SW,4.6,-,N/A,,Clear,220,2013-01-15 15:55:00
10:15 AM,27.9,12.4,52,30.29,10.0,SW,5.8,-,N/A,,Clear,230,2013-01-15 16:15:00
10:35 AM,29.5,12.4,49,30.29,10.0,SW,6.9,-,N/A,,Clear,220,2013-01-15 16:35:00
10:55 AM,30.6,10.9,44,30.29,10.0,WSW,8.1,-,N/A,,Clear,240,2013-01-15 16:55:00
11:15 AM,31.3,10.6,42,30.28,10.0,WSW,9.2,-,N/A,,Clear,240,2013-01-15 17:15:00
11:35 AM,31.8,10.0,40,30.27,10.0,SW,6.9,-,N/A,,Clear,230,2013-01-15 17:35:00
11:55 AM,32.2,9.9,39,30.26,10.0,SW,8.1,-,N/A,,Clear,230,2013-01-15 17:55:00
12:15 PM,33.6,10.4,38,30.25,10.0,WSW,9.2,-,N/A,,Clear,250,2013-01-15 18:15:00
12:35 PM,33.1,10.9,40,30.24,10.0,WSW,6.9,-,N/A,,Clear,250,2013-01-15 18:35:00
12:55 PM,33.4,11.5,40,30.22,10.0,SW,4.6,-,N/A,,Clear,220,2013-01-15 18:55:00
1:15 PM,34.0,12.0,40,30.21,10.0,SW,6.9,-,N/A,,Clear,220,2013-01-15 19:15:00
1:35 PM,34.9,12.4,40,30.20,10.0,WSW,8.1,-,N/A,,Clear,240,2013-01-15 19:35:00
1:55 PM,35.4,12.4,39,30.20,10.0,WSW,8.1,17.3,N/A,,Clear,250,2013-01-15 19:55:00
2:15 PM,35.6,11.7,37,30.19,10.0,SW,9.2,-,N/A,,Clear,220,2013-01-15 20:15:00
2:35 PM,35.6,12.2,38,30.19,10.0,SW,8.1,16.1,N/A,,Scattered Clouds,220,2013-01-15 20:35:00
2:55 PM,36.0,12.4,38,30.19,10.0,SW,10.4,-,N/A,,Scattered Clouds,220,2013-01-15 20:55:00
3:15 PM,35.1,12.7,40,30.19,10.0,West,9.2,-,N/A,,Scattered Clouds,260,2013-01-15 21:15:00
3:35 PM,36.3,12.2,37,30.18,10.0,SW,10.4,-,N/A,,Scattered Clouds,220,2013-01-15 21:35:00
3:55 PM,35.1,13.1,40,30.18,10.0,SSW,10.4,-,N/A,,Mostly Cloudy,210,2013-01-15 21:55:00
4:15 PM,36.0,12.7,38,30.18,10.0,SSW,10.4,-,N/A,,Mostly Cloudy,200,2013-01-15 22:15:00
4:35 PM,35.8,12.9,39,30.18,10.0,SW,8.1,-,N/A,,Mostly Cloudy,230,2013-01-15 22:35:00
4:55 PM,34.7,13.5,42,30.17,10.0,WSW,9.2,-,N/A,,Mostly Cloudy,240,2013-01-15 22:55:00
5:15 PM,33.8,14.0,44,30.16,10.0,SSW,8.1,-,N/A,,Clear,200,2013-01-15 23:15:00
5:35 PM,30.6,14.4,51,30.16,10.0,SSW,5.8,-,N/A,,Clear,200,2013-01-15 23:35:00
5:55 PM,28.9,14.7,55,30.16,10.0,SSW,6.9,-,N/A,,Clear,200,2013-01-15 23:55:00
6:15 PM,28.9,15.3,57,30.16,10.0,SSW,6.9,-,N/A,,Clear,210,2013-01-16 00:15:00
6:35 PM,27.1,15.4,61,30.16,10.0,SSW,5.8,-,N/A,,Clear,200,2013-01-16 00:35:00
6:55 PM,27.3,15.8,62,30.16,10.0,SSW,8.1,-,N/A,,Clear,200,2013-01-16 00:55:00
7:15 PM,26.1,15.8,65,30.16,10.0,SSW,6.9,-,N/A,,Clear,200,2013-01-16 01:15:00
7:35 PM,26.6,15.8,64,30.15,10.0,SSW,6.9,-,N/A,,Clear,210,2013-01-16 01:35:00
7:55 PM,26.4,16.3,66,30.14,10.0,SSW,9.2,-,N/A,,Clear,200,2013-01-16 01:55:00
8:15 PM,26.6,15.8,64,30.14,10.0,SSW,8.1,-,N/A,,Clear,200,2013-01-16 02:15:00
8:35 PM,26.2,16.0,65,30.13,10.0,SSW,8.1,-,N/A,,Clear,210,2013-01-16 02:35:00
8:55 PM,26.2,16.3,66,30.12,10.0,SSW,9.2,-,N/A,,Clear,200,2013-01-16 02:55:00
9:15 PM,26.2,16.3,66,30.12,10.0,SSW,9.2,-,N/A,,Clear,210,2013-01-16 03:15:00
9:35 PM,25.5,16.2,68,30.12,10.0,SSW,9.2,-,N/A,,Clear,200,2013-01-16 03:35:00
9:55 PM,25.5,16.0,67,30.12,10.0,SSW,9.2,-,N/A,,Clear,210,2013-01-16 03:55:00
10:15 PM,25.5,16.2,68,30.11,10.0,SSW,10.4,-,N/A,,Clear,200,2013-01-16 04:15:00
10:35 PM,25.7,16.2,67,30.10,10.0,SSW,10.4,-,N/A,,Clear,210,2013-01-16 04:35:00
10:55 PM,25.2,15.8,68,30.09,10.0,SSW,9.2,-,N/A,,Clear,210,2013-01-16 04:55:00
11:15 PM,25.2,15.8,68,30.08,10.0,SSW,10.4,-,N/A,,Clear,200,2013-01-16 05:15:00
11:35 PM,24.8,15.8,69,30.08,10.0,SSW,11.5,-,N/A,,Clear,210,2013-01-16 05:35:00
11:55 PM,24.8,15.8,69,30.07,10.0,SSW,11.5,-,N/A,,Clear,210,2013-01-16 05:55:00